LOCATION_NAME,SAMPLE COLLECTION TIME,DOSE EQUIVALENT RATE (nSv/h),GAMMA COUNT RATE R02 (CPM),GAMMA COUNT RATE R03 (CPM),GAMMA COUNT RATE R04 (CPM),GAMMA COUNT RATE R05 (CPM),GAMMA COUNT RATE R06 (CPM),GAMMA COUNT RATE R07 (CPM),GAMMA COUNT RATE R08 (CPM),GAMMA COUNT RATE R09 (CPM),STATUS
OR: CORVALLIS,01/01/2020 00:32:00,,1823.00,1048.00,300.00,172.00,101.00,124.00,80.00,32.00,APPROVED
OR: CORVALLIS,01/01/2020 01:32:00,,1858.00,1081.00,307.00,178.00,104.00,128.00,81.00,30.00,APPROVED
OR: CORVALLIS,01/01/2020 02:33:00,,1835.00,1048.00,303.00,170.00,102.00,123.00,78.00,31.00,APPROVED
OR: CORVALLIS,01/01/2020 03:33:00,,1873.00,1068.00,307.00,171.00,103.00,124.00,79.00,32.00,APPROVED
OR: CORVALLIS,01/01/2020 04:33:00,,1990.00,1170.00,326.00,193.00,110.00,139.00,85.00,32.00,APPROVED
OR: CORVALLIS,01/01/2020 05:33:00,,1974.00,1164.00,330.00,194.00,104.00,136.00,85.00,32.00,APPROVED
OR: CORVALLIS,01/01/2020 06:33:00,,1923.00,1120.00,324.00,185.00,105.00,129.00,83.00,34.00,APPROVED
OR: CORVALLIS,01/01/2020 07:34:00,,1856.00,1062.00,309.00,175.00,105.00,127.00,82.00,32.00,APPROVED
OR: CORVALLIS,01/01/2020 08:34:00,,1742.00,979.00,284.00,162.00,95.00,117.00,76.00,29.00,APPROVED
OR: CORVALLIS,01/01/2020 09:34:00,,1710.00,953.00,279.00,152.00,95.00,113.00,74.00,30.00,APPROVED
OR: CORVALLIS,01/01/2020 10:34:00,,1686.00,922.00,270.00,148.00,94.00,110.00,73.00,28.00,APPROVED
OR: CORVALLIS,01/01/2020 11:34:00,,1661.00,910.00,269.00,144.00,90.00,111.00,73.00,29.00,APPROVED
OR: CORVALLIS,01/01/2020 12:35:00,,1670.00,906.00,266.00,147.00,92.00,107.00,71.00,31.00,APPROVED
OR: CORVALLIS,01/01/2020 13:35:00,,1669.00,918.00,270.00,141.00,92.00,108.00,73.00,29.00,APPROVED
OR: CORVALLIS,01/01/2020 14:35:00,,1690.00,926.00,270.00,144.00,93.00,108.00,73.00,28.00,APPROVED
OR: CORVALLIS,01/01/2020 15:35:00,,1694.00,913.00,265.00,140.00,91.00,105.00,71.00,30.00,APPROVED
OR: CORVALLIS,01/01/2020 16:35:00,,1708.00,915.00,264.00,140.00,91.00,106.00,70.00,29.00,APPROVED
OR: CORVALLIS,01/01/2020 17:36:00,,1709.00,912.00,262.00,140.00,92.00,104.00,70.00,29.00,APPROVED
OR: CORVALLIS,01/01/2020 18:36:00,,1679.00,900.00,261.00,142.00,91.00,104.00,69.00,28.00,APPROVED
OR: CORVALLIS,01/01/2020 19:36:00,,1625.00,882.00,262.00,137.00,92.00,107.00,71.00,27.00,APPROVED
OR: CORVALLIS,01/01/2020 20:36:00,,1625.00,890.00,264.00,138.00,91.00,105.00,69.00,28.00,APPROVED
OR: CORVALLIS,01/01/2020 21:36:00,,1634.00,880.00,260.00,140.00,88.00,108.00,69.00,28.00,APPROVED
OR: CORVALLIS,01/01/2020 22:37:00,,1608.00,880.00,263.00,138.00,89.00,106.00,74.00,30.00,APPROVED
OR: CORVALLIS,01/01/2020 23:37:00,,1624.00,879.00,260.00,139.00,91.00,105.00,72.00,28.00,APPROVED
OR: CORVALLIS,01/02/2020 00:37:00,,1633.00,889.00,263.00,139.00,90.00,104.00,72.00,28.00,APPROVED
OR: CORVALLIS,01/02/2020 01:37:00,,1671.00,912.00,269.00,144.00,94.00,109.00,70.00,29.00,APPROVED
OR: CORVALLIS,01/02/2020 02:37:00,,1677.00,908.00,268.00,140.00,92.00,107.00,72.00,29.00,APPROVED
OR: CORVALLIS,01/02/2020 03:38:00,,1704.00,931.00,266.00,143.00,94.00,108.00,72.00,29.00,APPROVED
OR: CORVALLIS,01/02/2020 04:38:00,,1738.00,951.00,276.00,147.00,94.00,110.00,72.00,30.00,APPROVED
OR: CORVALLIS,01/02/2020 05:38:00,,1764.00,979.00,281.00,158.00,96.00,117.00,75.00,32.00,APPROVED
OR: CORVALLIS,01/02/2020 06:38:00,,1771.00,987.00,284.00,156.00,96.00,114.00,77.00,30.00,APPROVED
OR: CORVALLIS,01/02/2020 07:38:00,,1755.00,966.00,279.00,152.00,96.00,116.00,75.00,29.00,APPROVED
OR: CORVALLIS,01/02/2020 08:39:00,,1770.00,960.00,277.00,151.00,95.00,112.00,75.00,29.00,APPROVED
OR: CORVALLIS,01/02/2020 09:39:00,,1770.00,980.00,280.00,155.00,96.00,113.00,75.00,29.00,APPROVED
OR: CORVALLIS,01/02/2020 10:39:00,,1778.00,971.00,279.00,154.00,95.00,114.00,77.00,28.00,APPROVED
OR: CORVALLIS,01/02/2020 11:39:00,,1786.00,985.00,278.00,153.00,96.00,114.00,74.00,31.00,APPROVED
OR: CORVALLIS,01/02/2020 12:39:00,,1787.00,1000.00,282.00,157.00,96.00,116.00,77.00,29.00,APPROVED
OR: CORVALLIS,01/02/2020 13:40:00,,1820.00,988.00,285.00,157.00,96.00,116.00,74.00,29.00,APPROVED
OR: CORVALLIS,01/02/2020 14:40:00,,1839.00,1029.00,287.00,162.00,98.00,117.00,76.00,28.00,APPROVED
OR: CORVALLIS,01/02/2020 15:40:00,,1850.00,1044.00,291.00,167.00,99.00,121.00,79.00,32.00,APPROVED
OR: CORVALLIS,01/02/2020 16:40:00,,1871.00,1057.00,296.00,173.00,101.00,124.00,80.00,31.00,APPROVED
OR: CORVALLIS,01/02/2020 17:40:00,,1853.00,1041.00,298.00,169.00,98.00,124.00,80.00,31.00,APPROVED
OR: CORVALLIS,01/02/2020 18:41:00,,1818.00,1041.00,295.00,170.00,101.00,122.00,80.00,31.00,APPROVED
OR: CORVALLIS,01/02/2020 19:41:00,,1805.00,1017.00,298.00,167.00,100.00,120.00,77.00,32.00,APPROVED
OR: CORVALLIS,01/02/2020 20:41:00,,1800.00,1015.00,288.00,166.00,98.00,120.00,79.00,30.00,APPROVED
OR: CORVALLIS,01/02/2020 21:41:00,,1772.00,996.00,286.00,163.00,97.00,119.00,78.00,30.00,APPROVED
OR: CORVALLIS,01/02/2020 22:41:00,,1748.00,992.00,287.00,164.00,99.00,120.00,77.00,31.00,APPROVED
OR: CORVALLIS,01/02/2020 23:42:00,,1743.00,991.00,287.00,163.00,99.00,120.00,78.00,31.00,APPROVED
OR: CORVALLIS,01/03/2020 00:42:00,,1756.00,992.00,290.00,164.00,100.00,122.00,79.00,30.00,APPROVED
OR: CORVALLIS,01/03/2020 01:42:00,,1778.00,995.00,287.00,163.00,99.00,118.00,77.00,30.00,APPROVED
OR: CORVALLIS,01/03/2020 02:42:00,,1797.00,1002.00,289.00,157.00,99.00,118.00,76.00,29.00,APPROVED
OR: CORVALLIS,01/03/2020 03:42:00,,1802.00,1005.00,287.00,159.00,98.00,116.00,78.00,30.00,APPROVED
OR: CORVALLIS,01/03/2020 04:43:00,,1781.00,991.00,286.00,157.00,97.00,116.00,75.00,30.00,APPROVED
OR: CORVALLIS,01/03/2020 05:43:00,,1762.00,970.00,284.00,158.00,95.00,114.00,75.00,28.00,APPROVED
OR: CORVALLIS,01/03/2020 06:43:00,,1758.00,968.00,283.00,152.00,98.00,113.00,74.00,30.00,APPROVED
OR: CORVALLIS,01/03/2020 07:43:00,,1731.00,948.00,273.00,147.00,94.00,113.00,76.00,29.00,APPROVED
OR: CORVALLIS,01/03/2020 08:43:00,,1764.00,966.00,276.00,153.00,95.00,113.00,74.00,30.00,APPROVED
OR: CORVALLIS,01/03/2020 09:44:00,,1798.00,990.00,284.00,155.00,94.00,115.00,73.00,28.00,APPROVED
OR: CORVALLIS,01/03/2020 10:44:00,,1823.00,1010.00,284.00,156.00,98.00,116.00,74.00,29.00,APPROVED
OR: CORVALLIS,01/03/2020 11:44:00,,1843.00,1009.00,283.00,154.00,96.00,114.00,74.00,30.00,APPROVED
OR: CORVALLIS,01/03/2020 12:44:00,,1834.00,995.00,282.00,155.00,96.00,112.00,74.00,28.00,APPROVED
OR: CORVALLIS,01/03/2020 13:44:00,,1833.00,984.00,280.00,150.00,98.00,111.00,74.00,29.00,APPROVED
OR: CORVALLIS,01/03/2020 14:45:00,,1834.00,1000.00,281.00,154.00,94.00,113.00,77.00,30.00,APPROVED
OR: CORVALLIS,01/03/2020 15:45:00,,1850.00,1002.00,282.00,154.00,96.00,114.00,72.00,30.00,APPROVED
OR: CORVALLIS,01/03/2020 16:56:00,,1843.00,983.00,280.00,146.00,96.00,110.00,73.00,29.00,APPROVED
OR: CORVALLIS,01/03/2020 17:56:00,,1849.00,1015.00,285.00,153.00,97.00,113.00,74.00,31.00,APPROVED
OR: CORVALLIS,01/03/2020 18:56:00,,1737.00,958.00,279.00,154.00,99.00,116.00,76.00,29.00,APPROVED
OR: CORVALLIS,01/03/2020 19:56:00,,1634.00,914.00,276.00,149.00,95.00,113.00,74.00,30.00,APPROVED
OR: CORVALLIS,01/03/2020 20:57:00,,1590.00,895.00,275.00,149.00,94.00,113.00,75.00,30.00,APPROVED
OR: CORVALLIS,01/03/2020 21:57:00,,1585.00,895.00,276.00,148.00,94.00,114.00,75.00,30.00,APPROVED
OR: CORVALLIS,01/03/2020 22:57:00,,1593.00,889.00,281.00,146.00,95.00,115.00,75.00,31.00,APPROVED
OR: CORVALLIS,01/03/2020 23:57:00,,1587.00,902.00,275.00,147.00,96.00,115.00,77.00,30.00,APPROVED
OR: CORVALLIS,01/04/2020 00:57:00,,1606.00,907.00,283.00,150.00,98.00,117.00,77.00,29.00,APPROVED
OR: CORVALLIS,01/04/2020 01:58:00,,1641.00,929.00,281.00,156.00,96.00,119.00,78.00,31.00,APPROVED
OR: CORVALLIS,01/04/2020 02:58:00,,1690.00,950.00,282.00,156.00,94.00,116.00,77.00,30.00,APPROVED
OR: CORVALLIS,01/04/2020 03:58:00,,1713.00,954.00,280.00,154.00,96.00,116.00,77.00,28.00,APPROVED
OR: CORVALLIS,01/04/2020 04:58:00,,1694.00,937.00,277.00,152.00,96.00,116.00,75.00,30.00,APPROVED
OR: CORVALLIS,01/04/2020 05:58:00,,1688.00,949.00,282.00,153.00,95.00,114.00,76.00,29.00,APPROVED
OR: CORVALLIS,01/04/2020 06:59:00,,1928.00,1111.00,310.00,174.00,103.00,128.00,82.00,30.00,APPROVED
OR: CORVALLIS,01/04/2020 07:59:00,,1950.00,1094.00,311.00,172.00,101.00,124.00,76.00,30.00,APPROVED
OR: CORVALLIS,01/04/2020 08:59:00,,1894.00,1029.00,293.00,160.00,98.00,117.00,75.00,30.00,APPROVED
OR: CORVALLIS,01/04/2020 09:59:00,,1857.00,993.00,282.00,155.00,95.00,112.00,75.00,30.00,APPROVED
OR: CORVALLIS,01/04/2020 10:59:00,,1829.00,983.00,276.00,150.00,92.00,111.00,71.00,30.00,APPROVED
OR: CORVALLIS,01/04/2020 12:00:00,,1823.00,978.00,274.00,148.00,93.00,110.00,74.00,28.00,APPROVED
OR: CORVALLIS,01/04/2020 13:00:00,,1850.00,986.00,280.00,150.00,96.00,110.00,74.00,29.00,APPROVED
OR: CORVALLIS,01/04/2020 14:00:00,,1860.00,1007.00,279.00,154.00,95.00,113.00,75.00,29.00,APPROVED
OR: CORVALLIS,01/04/2020 15:00:00,,1855.00,991.00,280.00,149.00,93.00,112.00,74.00,29.00,APPROVED
OR: CORVALLIS,01/04/2020 16:00:00,,1887.00,1006.00,282.00,150.00,96.00,110.00,75.00,30.00,APPROVED
OR: CORVALLIS,01/04/2020 17:01:00,,1925.00,1026.00,284.00,157.00,94.00,113.00,73.00,28.00,APPROVED
OR: CORVALLIS,01/04/2020 18:01:00,,1860.00,1007.00,282.00,154.00,97.00,114.00,76.00,28.00,APPROVED
OR: CORVALLIS,01/04/2020 19:01:00,,1764.00,981.00,284.00,154.00,97.00,114.00,74.00,29.00,APPROVED
OR: CORVALLIS,01/04/2020 20:01:00,,1700.00,953.00,276.00,155.00,94.00,116.00,76.00,29.00,APPROVED
OR: CORVALLIS,01/04/2020 21:01:00,,1687.00,929.00,284.00,142.00,94.00,121.00,64.00,31.00,APPROVED
OR: CORVALLIS,01/04/2020 22:02:00,,1648.00,929.00,275.00,152.00,95.00,116.00,77.00,30.00,APPROVED
OR: CORVALLIS,01/04/2020 23:02:00,,1696.00,952.00,281.00,159.00,96.00,114.00,78.00,29.00,APPROVED
OR: CORVALLIS,01/05/2020 00:02:00,,1759.00,949.00,284.00,143.00,95.00,126.00,55.00,28.00,APPROVED
OR: CORVALLIS,01/05/2020 01:02:00,,1881.00,1080.00,309.00,169.00,104.00,129.00,75.00,31.00,APPROVED
OR: CORVALLIS,01/05/2020 02:03:00,,1904.00,1095.00,317.00,179.00,102.00,129.00,80.00,31.00,APPROVED
OR: CORVALLIS,01/05/2020 03:03:00,,1878.00,1035.00,297.00,166.00,99.00,120.00,76.00,30.00,APPROVED
OR: CORVALLIS,01/05/2020 04:03:00,,1815.00,984.00,281.00,151.00,94.00,112.00,74.00,28.00,APPROVED
OR: CORVALLIS,01/05/2020 05:03:00,,1812.00,984.00,278.00,152.00,94.00,113.00,73.00,29.00,APPROVED
OR: CORVALLIS,01/05/2020 06:03:00,,1813.00,982.00,278.00,154.00,95.00,112.00,73.00,30.00,APPROVED
OR: CORVALLIS,01/05/2020 07:04:00,,1783.00,977.00,278.00,150.00,94.00,110.00,74.00,29.00,APPROVED
OR: CORVALLIS,01/05/2020 08:04:00,,1793.00,973.00,276.00,152.00,97.00,110.00,73.00,29.00,APPROVED
OR: CORVALLIS,01/05/2020 09:04:00,,1827.00,985.00,277.00,148.00,93.00,111.00,74.00,29.00,APPROVED
OR: CORVALLIS,01/05/2020 10:04:00,,1853.00,1002.00,284.00,155.00,98.00,113.00,74.00,30.00,APPROVED
OR: CORVALLIS,01/05/2020 11:04:00,,1875.00,1008.00,289.00,155.00,95.00,114.00,77.00,31.00,APPROVED
OR: CORVALLIS,01/05/2020 12:05:00,,1881.00,1011.00,284.00,153.00,96.00,116.00,74.00,30.00,APPROVED
OR: CORVALLIS,01/05/2020 13:05:00,,1877.00,1009.00,286.00,153.00,96.00,112.00,74.00,30.00,APPROVED
OR: CORVALLIS,01/05/2020 14:05:00,,1864.00,1003.00,281.00,153.00,97.00,116.00,72.00,29.00,APPROVED
OR: CORVALLIS,01/05/2020 15:05:00,,1883.00,1023.00,289.00,158.00,96.00,116.00,73.00,30.00,APPROVED
OR: CORVALLIS,01/05/2020 16:05:00,,2005.00,1136.00,314.00,175.00,103.00,126.00,79.00,31.00,APPROVED
OR: CORVALLIS,01/05/2020 17:06:00,,1963.00,1112.00,307.00,172.00,104.00,125.00,78.00,30.00,APPROVED
OR: CORVALLIS,01/05/2020 18:06:00,,1997.00,1124.00,309.00,175.00,102.00,123.00,77.00,30.00,APPROVED
OR: CORVALLIS,01/05/2020 19:06:00,,2062.00,1184.00,324.00,188.00,107.00,134.00,82.00,32.00,APPROVED
OR: CORVALLIS,01/05/2020 20:06:00,,1892.00,1071.00,303.00,171.00,104.00,126.00,81.00,31.00,APPROVED
OR: CORVALLIS,01/05/2020 21:06:00,,1752.00,959.00,280.00,152.00,95.00,110.00,75.00,30.00,APPROVED
OR: CORVALLIS,01/05/2020 22:07:00,,1652.00,902.00,268.00,144.00,90.00,110.00,71.00,29.00,APPROVED
OR: CORVALLIS,01/05/2020 23:07:00,,1625.00,888.00,260.00,139.00,91.00,107.00,72.00,27.00,APPROVED
OR: CORVALLIS,01/06/2020 00:07:00,,1640.00,892.00,262.00,139.00,92.00,104.00,71.00,30.00,APPROVED
OR: CORVALLIS,01/06/2020 01:07:00,,1705.00,932.00,270.00,146.00,92.00,109.00,74.00,29.00,APPROVED
OR: CORVALLIS,01/06/2020 02:07:00,,1735.00,938.00,274.00,149.00,93.00,111.00,70.00,28.00,APPROVED
OR: CORVALLIS,01/06/2020 03:08:00,,1750.00,945.00,275.00,147.00,93.00,110.00,73.00,29.00,APPROVED
OR: CORVALLIS,01/06/2020 04:08:00,,1750.00,945.00,267.00,148.00,92.00,108.00,74.00,29.00,APPROVED
OR: CORVALLIS,01/06/2020 05:08:00,,1770.00,968.00,273.00,148.00,92.00,108.00,72.00,28.00,APPROVED
OR: CORVALLIS,01/06/2020 06:08:00,,1813.00,993.00,286.00,155.00,96.00,114.00,74.00,28.00,APPROVED
OR: CORVALLIS,01/06/2020 07:08:00,,1826.00,1002.00,289.00,160.00,97.00,114.00,75.00,31.00,APPROVED
OR: CORVALLIS,01/06/2020 08:09:00,,1839.00,1013.00,286.00,156.00,95.00,114.00,76.00,30.00,APPROVED
OR: CORVALLIS,01/06/2020 09:09:00,,1874.00,1033.00,288.00,158.00,97.00,120.00,75.00,29.00,APPROVED
OR: CORVALLIS,01/06/2020 10:09:00,,1878.00,1025.00,291.00,158.00,100.00,116.00,75.00,30.00,APPROVED
OR: CORVALLIS,01/06/2020 11:09:00,,1894.00,1031.00,288.00,156.00,96.00,117.00,75.00,31.00,APPROVED
OR: CORVALLIS,01/06/2020 12:09:00,,1884.00,1031.00,290.00,159.00,99.00,117.00,76.00,30.00,APPROVED
OR: CORVALLIS,01/06/2020 13:10:00,,1920.00,1053.00,294.00,163.00,97.00,120.00,75.00,29.00,APPROVED
OR: CORVALLIS,01/06/2020 14:10:00,,1936.00,1072.00,302.00,169.00,98.00,121.00,77.00,31.00,APPROVED
OR: CORVALLIS,01/06/2020 15:10:00,,1953.00,1071.00,297.00,167.00,101.00,122.00,78.00,28.00,APPROVED
OR: CORVALLIS,01/06/2020 15:56:00,,1944.00,1080.00,304.00,172.00,102.00,121.00,76.00,31.00,APPROVED
OR: CORVALLIS,01/06/2020 17:02:00,,1919.00,1033.00,290.00,157.00,95.00,116.00,73.00,29.00,APPROVED
OR: CORVALLIS,01/06/2020 18:02:00,,1950.00,1063.00,292.00,163.00,97.00,118.00,74.00,29.00,APPROVED
OR: CORVALLIS,01/06/2020 19:02:00,,1951.00,1069.00,300.00,167.00,97.00,119.00,76.00,31.00,APPROVED
OR: CORVALLIS,01/06/2020 20:02:00,,1963.00,1076.00,296.00,168.00,99.00,122.00,78.00,30.00,APPROVED
OR: CORVALLIS,01/06/2020 21:02:00,,1964.00,1088.00,302.00,172.00,100.00,123.00,78.00,31.00,APPROVED
OR: CORVALLIS,01/06/2020 22:03:00,,2035.00,1170.00,321.00,188.00,107.00,132.00,81.00,31.00,APPROVED
OR: CORVALLIS,01/06/2020 23:03:00,,2028.00,1156.00,319.00,185.00,107.00,132.00,82.00,32.00,APPROVED
OR: CORVALLIS,01/07/2020 00:03:00,,1986.00,1133.00,314.00,178.00,107.00,129.00,81.00,31.00,APPROVED
OR: CORVALLIS,01/07/2020 01:03:00,,1960.00,1109.00,314.00,179.00,105.00,128.00,80.00,30.00,APPROVED
OR: CORVALLIS,01/07/2020 02:03:00,,1839.00,1010.00,290.00,158.00,98.00,118.00,77.00,28.00,APPROVED
OR: CORVALLIS,01/07/2020 03:04:00,,1792.00,973.00,277.00,154.00,97.00,111.00,74.00,30.00,APPROVED
OR: CORVALLIS,01/07/2020 04:04:00,,1777.00,963.00,271.00,149.00,94.00,109.00,73.00,29.00,APPROVED
OR: CORVALLIS,01/07/2020 05:04:00,,1774.00,963.00,277.00,147.00,93.00,112.00,73.00,28.00,APPROVED
OR: CORVALLIS,01/07/2020 06:04:00,,1781.00,960.00,277.00,148.00,93.00,111.00,71.00,30.00,APPROVED
OR: CORVALLIS,01/07/2020 07:05:00,,1777.00,959.00,274.00,147.00,94.00,111.00,73.00,30.00,APPROVED
OR: CORVALLIS,01/07/2020 08:05:00,,1759.00,954.00,277.00,147.00,94.00,110.00,74.00,29.00,APPROVED
OR: CORVALLIS,01/07/2020 09:05:00,,1738.00,941.00,277.00,146.00,94.00,110.00,73.00,30.00,APPROVED
OR: CORVALLIS,01/07/2020 10:05:00,,1740.00,942.00,270.00,148.00,92.00,108.00,74.00,30.00,APPROVED
OR: CORVALLIS,01/07/2020 11:05:00,,1736.00,941.00,270.00,145.00,93.00,109.00,74.00,28.00,APPROVED
OR: CORVALLIS,01/07/2020 12:06:00,,1739.00,946.00,271.00,148.00,93.00,110.00,73.00,29.00,APPROVED
OR: CORVALLIS,01/07/2020 13:06:00,,1723.00,945.00,271.00,151.00,95.00,112.00,71.00,29.00,APPROVED
OR: CORVALLIS,01/07/2020 14:06:00,,1742.00,938.00,272.00,148.00,95.00,112.00,73.00,29.00,APPROVED
OR: CORVALLIS,01/07/2020 15:06:00,,1748.00,947.00,275.00,152.00,94.00,110.00,75.00,29.00,APPROVED
OR: CORVALLIS,01/07/2020 16:06:00,,1760.00,961.00,275.00,150.00,94.00,111.00,75.00,29.00,APPROVED
OR: CORVALLIS,01/07/2020 17:07:00,,1772.00,972.00,277.00,153.00,96.00,114.00,76.00,28.00,APPROVED
OR: CORVALLIS,01/07/2020 18:07:00,,1741.00,960.00,279.00,153.00,97.00,113.00,74.00,29.00,APPROVED
OR: CORVALLIS,01/07/2020 19:07:00,,1738.00,951.00,280.00,153.00,97.00,111.00,77.00,29.00,APPROVED
OR: CORVALLIS,01/07/2020 20:07:00,,1711.00,945.00,277.00,153.00,94.00,113.00,75.00,29.00,APPROVED
OR: CORVALLIS,01/07/2020 21:07:00,,1672.00,928.00,273.00,147.00,96.00,113.00,75.00,29.00,APPROVED
OR: CORVALLIS,01/07/2020 22:08:00,,1688.00,923.00,279.00,144.00,91.00,114.00,73.00,28.00,APPROVED
OR: CORVALLIS,01/07/2020 23:08:00,,1786.00,1004.00,290.00,158.00,97.00,121.00,74.00,29.00,APPROVED
OR: CORVALLIS,01/08/2020 00:08:00,,1865.00,1056.00,301.00,172.00,100.00,121.00,78.00,30.00,APPROVED
OR: CORVALLIS,01/08/2020 01:08:00,,1806.00,997.00,289.00,159.00,98.00,116.00,75.00,30.00,APPROVED
OR: CORVALLIS,01/08/2020 02:08:00,,1757.00,946.00,279.00,150.00,93.00,108.00,71.00,28.00,APPROVED
OR: CORVALLIS,01/08/2020 03:09:00,,1782.00,963.00,276.00,149.00,94.00,109.00,73.00,29.00,APPROVED
OR: CORVALLIS,01/08/2020 04:09:00,,1812.00,974.00,279.00,152.00,94.00,112.00,74.00,30.00,APPROVED
OR: CORVALLIS,01/08/2020 05:09:00,,1852.00,1013.00,289.00,159.00,95.00,117.00,77.00,29.00,APPROVED
OR: CORVALLIS,01/08/2020 06:09:00,,1832.00,996.00,283.00,152.00,96.00,112.00,74.00,30.00,APPROVED
OR: CORVALLIS,01/08/2020 07:09:00,,1776.00,953.00,276.00,149.00,94.00,112.00,74.00,30.00,APPROVED
OR: CORVALLIS,01/08/2020 08:10:00,,1749.00,941.00,267.00,143.00,92.00,107.00,72.00,30.00,APPROVED
OR: CORVALLIS,01/08/2020 09:10:00,,1772.00,973.00,274.00,149.00,95.00,111.00,74.00,29.00,APPROVED
OR: CORVALLIS,01/08/2020 10:10:00,,1796.00,987.00,278.00,153.00,96.00,114.00,75.00,30.00,APPROVED
OR: CORVALLIS,01/08/2020 11:10:00,,1786.00,967.00,275.00,144.00,93.00,108.00,73.00,29.00,APPROVED
OR: CORVALLIS,01/08/2020 12:10:00,,1809.00,959.00,272.00,143.00,93.00,105.00,71.00,27.00,APPROVED
OR: CORVALLIS,01/08/2020 13:11:00,,1819.00,961.00,267.00,145.00,94.00,107.00,71.00,28.00,APPROVED
OR: CORVALLIS,01/08/2020 14:11:00,,1827.00,962.00,273.00,144.00,92.00,107.00,73.00,29.00,APPROVED
OR: CORVALLIS,01/08/2020 15:11:00,,1841.00,968.00,273.00,142.00,91.00,109.00,69.00,29.00,APPROVED
OR: CORVALLIS,01/08/2020 16:11:00,,1853.00,967.00,273.00,146.00,91.00,108.00,72.00,29.00,APPROVED
OR: CORVALLIS,01/08/2020 17:11:00,,1836.00,973.00,276.00,145.00,93.00,109.00,72.00,30.00,APPROVED
OR: CORVALLIS,01/08/2020 18:12:00,,1831.00,979.00,278.00,148.00,94.00,109.00,74.00,29.00,APPROVED
OR: CORVALLIS,01/08/2020 19:12:00,,1804.00,978.00,277.00,151.00,93.00,114.00,74.00,30.00,APPROVED
OR: CORVALLIS,01/08/2020 20:12:00,,1752.00,965.00,279.00,149.00,95.00,111.00,74.00,29.00,APPROVED
OR: CORVALLIS,01/08/2020 21:12:00,,1757.00,967.00,278.00,153.00,93.00,112.00,77.00,31.00,APPROVED
OR: CORVALLIS,01/08/2020 22:12:00,,1750.00,976.00,284.00,156.00,97.00,116.00,76.00,30.00,APPROVED
OR: CORVALLIS,01/08/2020 23:13:00,,1766.00,971.00,284.00,153.00,96.00,114.00,76.00,30.00,APPROVED
OR: CORVALLIS,01/09/2020 00:13:00,,1805.00,966.00,278.00,150.00,93.00,113.00,73.00,28.00,APPROVED
OR: CORVALLIS,01/09/2020 01:13:00,,1833.00,982.00,281.00,152.00,95.00,110.00,72.00,29.00,APPROVED
OR: CORVALLIS,01/09/2020 02:13:00,,1869.00,1002.00,288.00,153.00,95.00,114.00,76.00,30.00,APPROVED
OR: CORVALLIS,01/09/2020 03:13:00,,1866.00,1003.00,286.00,156.00,96.00,114.00,74.00,29.00,APPROVED
OR: CORVALLIS,01/09/2020 04:14:00,,1883.00,1037.00,291.00,160.00,97.00,115.00,76.00,31.00,APPROVED
OR: CORVALLIS,01/09/2020 05:14:00,,1887.00,1026.00,291.00,160.00,96.00,116.00,76.00,29.00,APPROVED
OR: CORVALLIS,01/09/2020 06:14:00,,1872.00,1005.00,281.00,153.00,94.00,113.00,74.00,28.00,APPROVED
OR: CORVALLIS,01/09/2020 07:14:00,,1888.00,992.00,274.00,148.00,95.00,111.00,73.00,28.00,APPROVED
OR: CORVALLIS,01/09/2020 08:14:00,,1914.00,1013.00,280.00,149.00,95.00,113.00,74.00,29.00,APPROVED
OR: CORVALLIS,01/09/2020 09:15:00,,1952.00,1030.00,285.00,154.00,96.00,114.00,73.00,29.00,APPROVED
OR: CORVALLIS,01/09/2020 10:15:00,,1945.00,1040.00,287.00,158.00,97.00,113.00,75.00,29.00,APPROVED
OR: CORVALLIS,01/09/2020 11:15:00,,1937.00,1035.00,290.00,158.00,95.00,116.00,74.00,29.00,APPROVED
OR: CORVALLIS,01/09/2020 12:15:00,,1946.00,1041.00,284.00,156.00,97.00,117.00,74.00,29.00,APPROVED
OR: CORVALLIS,01/09/2020 13:15:00,,2001.00,1059.00,287.00,160.00,97.00,117.00,77.00,29.00,APPROVED
OR: CORVALLIS,01/09/2020 14:16:00,,1993.00,1070.00,295.00,163.00,98.00,122.00,76.00,30.00,APPROVED
OR: CORVALLIS,01/09/2020 15:16:00,,1977.00,1051.00,291.00,157.00,97.00,121.00,72.00,29.00,APPROVED
OR: CORVALLIS,01/09/2020 16:16:00,,1967.00,1034.00,289.00,155.00,95.00,124.00,69.00,29.00,APPROVED
OR: CORVALLIS,01/09/2020 17:16:00,,1954.00,1046.00,289.00,156.00,96.00,116.00,74.00,29.00,APPROVED
OR: CORVALLIS,01/09/2020 18:16:00,,1966.00,1066.00,294.00,163.00,97.00,120.00,76.00,30.00,APPROVED
OR: CORVALLIS,01/09/2020 19:17:00,,1907.00,1047.00,290.00,163.00,99.00,118.00,77.00,30.00,APPROVED
OR: CORVALLIS,01/09/2020 20:17:00,,1837.00,990.00,285.00,153.00,97.00,113.00,73.00,30.00,APPROVED
OR: CORVALLIS,01/09/2020 21:17:00,,1825.00,986.00,287.00,154.00,96.00,115.00,75.00,29.00,APPROVED
OR: CORVALLIS,01/09/2020 22:17:00,,1821.00,983.00,277.00,151.00,92.00,113.00,75.00,29.00,APPROVED
OR: CORVALLIS,01/09/2020 23:17:00,,1816.00,998.00,287.00,155.00,98.00,114.00,75.00,29.00,APPROVED
OR: CORVALLIS,01/10/2020 00:18:00,,2131.00,1258.00,349.00,204.00,112.00,142.00,85.00,34.00,APPROVED
OR: CORVALLIS,01/10/2020 01:18:00,,2196.00,1318.00,364.00,223.00,121.00,155.00,92.00,35.00,APPROVED
OR: CORVALLIS,01/10/2020 02:18:00,,1984.00,1109.00,312.00,180.00,104.00,127.00,83.00,32.00,APPROVED
OR: CORVALLIS,01/10/2020 03:18:00,,1960.00,1061.00,296.00,166.00,102.00,117.00,79.00,31.00,APPROVED
OR: CORVALLIS,01/10/2020 04:18:00,,1975.00,1073.00,298.00,166.00,98.00,122.00,79.00,30.00,APPROVED
OR: CORVALLIS,01/10/2020 05:19:00,,2016.00,1097.00,302.00,168.00,103.00,122.00,78.00,30.00,APPROVED
OR: CORVALLIS,01/10/2020 06:19:00,,2024.00,1138.00,310.00,183.00,104.00,129.00,81.00,32.00,APPROVED
OR: CORVALLIS,01/10/2020 07:19:00,,2015.00,1137.00,315.00,181.00,105.00,130.00,83.00,32.00,APPROVED
OR: CORVALLIS,01/10/2020 08:19:00,,2040.00,1149.00,317.00,183.00,104.00,129.00,84.00,30.00,APPROVED
OR: CORVALLIS,01/10/2020 09:19:00,,2069.00,1167.00,320.00,189.00,108.00,134.00,85.00,31.00,APPROVED
OR: CORVALLIS,01/10/2020 10:20:00,,2084.00,1179.00,323.00,192.00,107.00,134.00,84.00,33.00,APPROVED
OR: CORVALLIS,01/10/2020 11:20:00,,1995.00,1113.00,309.00,182.00,103.00,127.00,80.00,31.00,APPROVED
OR: CORVALLIS,01/10/2020 12:20:00,,1938.00,1061.00,297.00,164.00,98.00,120.00,77.00,29.00,APPROVED
OR: CORVALLIS,01/10/2020 13:20:00,,1941.00,1049.00,288.00,159.00,98.00,116.00,75.00,30.00,APPROVED
OR: CORVALLIS,01/10/2020 14:20:00,,1951.00,1050.00,288.00,161.00,97.00,113.00,74.00,30.00,APPROVED
OR: CORVALLIS,01/10/2020 15:21:00,,1978.00,1054.00,296.00,158.00,97.00,116.00,76.00,31.00,APPROVED
OR: CORVALLIS,01/10/2020 16:21:00,,1968.00,1060.00,290.00,158.00,98.00,116.00,76.00,29.00,APPROVED
OR: CORVALLIS,01/10/2020 17:42:00,,1935.00,1023.00,279.00,151.00,94.00,112.00,72.00,29.00,APPROVED
OR: CORVALLIS,01/10/2020 18:42:00,,1917.00,1040.00,289.00,155.00,95.00,113.00,75.00,30.00,APPROVED
OR: CORVALLIS,01/10/2020 19:43:00,,1905.00,1039.00,291.00,161.00,96.00,119.00,75.00,28.00,APPROVED
OR: CORVALLIS,01/10/2020 20:43:00,,1952.00,1077.00,298.00,169.00,98.00,122.00,79.00,30.00,APPROVED
OR: CORVALLIS,01/10/2020 21:43:00,,1953.00,1074.00,299.00,167.00,101.00,119.00,79.00,30.00,APPROVED
OR: CORVALLIS,01/10/2020 22:43:00,,1974.00,1106.00,311.00,174.00,101.00,126.00,79.00,31.00,APPROVED
OR: CORVALLIS,01/10/2020 23:43:00,,1921.00,1078.00,306.00,172.00,103.00,124.00,78.00,31.00,APPROVED
OR: CORVALLIS,01/11/2020 00:44:00,,1775.00,980.00,280.00,156.00,93.00,113.00,73.00,30.00,APPROVED